| time (UTC) | temp C | wind direction | speed KPH | gust KPH | rain 1hr cm | rain 24hr cm | rain mn cm | humidity % | barometer mb |
| 20260507095801 | 10 | 90 | 11.3 | 11.3 | 0.00 | 1.37 | 0.00 | 79 | 1012.3 |
| 20260507085801 | 10 | 90 | 11.3 | 11.3 | 0.00 | 1.37 | 0.00 | 81 | 1011.7 |
| 20260507075801 | 10 | 67 | 6.4 | 6.4 | 0.00 | 1.37 | 0.00 | 82 | 1011.4 |
| 20260507065801 | 9 | 67 | 9.7 | 9.7 | 0.00 | 1.37 | 0.00 | 82 | 1011.0 |
| 20260507055801 | 9 | 90 | 8.0 | 8.0 | 0.00 | 1.37 | 0.00 | 84 | 1010.5 |
| 20260507045801 | 8 | 67 | 4.8 | 4.8 | 0.00 | 1.37 | 0.00 | 88 | 1010.1 |
| 20260507035802 | 6 | 90 | 0.0 | 0.0 | 0.00 | 1.37 | 0.00 | 90 | 1009.3 |
| 20260507025802 | 7 | 90 | 4.8 | 4.8 | 0.00 | 1.37 | 0.00 | 89 | 1009.3 |
| 20260507015802 | 8 | 0 | 6.4 | 6.4 | 0.00 | 1.37 | 0.00 | 88 | 1008.8 |
| 20260507005801 | 8 | 22 | 8.0 | 8.0 | 0.00 | 1.37 | 0.00 | 84 | 1008.5 |
| 20260506235802 | 8 | 292 | 8.0 | 8.0 | 0.00 | 1.37 | 0.00 | 79 | 1008.4 |
| 20260506225802 | 8 | 22 | 11.3 | 11.3 | 0.00 | 1.37 | 0.00 | 76 | 1008.3 |
| 20260506215802 | 8 | 337 | 11.3 | 11.3 | 0.00 | 1.37 | 0.00 | 77 | 1008.2 |
| 20260506205801 | 8 | 0 | 12.9 | 12.9 | 0.00 | 1.37 | 0.00 | 78 | 1007.8 |
| 20260506195802 | 8 | 45 | 9.7 | 9.7 | 0.00 | 1.37 | 0.00 | 83 | 1007.6 |
| 20260506185801 | 8 | 315 | 12.9 | 12.9 | 0.00 | 1.37 | 0.00 | 80 | 1007.2 |
| 20260506175801 | 8 | 45 | 14.5 | 14.5 | 0.00 | 1.37 | 0.00 | 80 | 1006.5 |
| 20260506165802 | 9 | 315 | 14.5 | 14.5 | 0.00 | 1.37 | 0.00 | 77 | 1006.3 |
| 20260506155801 | 10 | 315 | 9.7 | 9.7 | 0.00 | 1.37 | 0.00 | 75 | 1006.3 |
| 20260506145802 | 10 | 22 | 16.1 | 16.1 | 0.00 | 1.37 | 0.00 | 77 | 1006.3 |
| 20260506135802 | 10 | 45 | 12.9 | 12.9 | 0.00 | 1.37 | 0.00 | 81 | 1006.4 |
| 20260506125802 | 11 | 337 | 12.9 | 12.9 | 0.00 | 1.37 | 0.00 | 80 | 1006.3 |
| 20260506115802 | 11 | 45 | 16.1 | 16.1 | 0.00 | 1.37 | 0.00 | 80 | 1006.1 |
| 20260506105802 | 11 | 22 | 14.5 | 14.5 | 0.00 | 1.37 | 0.00 | 71 | 1006.3 |